Student's Login

Local Time

LGIR WEATHER

[source: ADDS]
METAR
LGIR 210220Z 22014KT 9999 FEW025 BKN090 21/16 Q1013 NOSIG =
TAF LGIR 202300Z 2100/2124 18020KT 9999 FEW025 BKN090 PROB30 TEMPO 2106/2112 5000 RA BKN020 BKN080 BECMG 2108/2110 28012KT
TAF
TAF LGIR 202300Z 2100/2124 18020KT 9999 FEW025 BKN090 PROB30 TEMPO 2106/2112 5000 RA BKN020 BKN080 BECMG 2108/2110 28012KT =

Czech sport aircraft

Cretan Eagle Aviation Ltd. is proud to be appointed as an authorized Czech Sport Aircraft Promoter for Greece
and Cyprus. Please click on the link or give us a call for any additional information on Czech Sport Aircraft.

 

 

On-line PPL QUIZ

Student members can join our free on-line database to practice on PPL quizzes and get ready for the real
exams. Becoming a member and getting access to our system is FREE for all of our students.

 

Paypal Verified

Payments for any Course can be made by Bank Transfer, Cash and PayPal secure payment.

 

Go to top